Location: Unspecified
(43.4680°N, 87.1740°E)
Time: 19:39:09
(UTC+00:00)

IRS-P3 - Pass Details

Date: 17 April 2021
Orbit: 814 x 818 km, 98.9° (Epoch: 12 May)

Event Time Altitude Azimuth Distance (km) Brightness Sun altitude
Rises 21:17:06 0° 13° (NNE) 3,358 8.2 -21.2°
Reaches altitude 10° 21:19:27 10° 12° (NNE) 2,421 7.3 -20.8°
Maximum altitude 21:24:49 81° 287° (WNW) 833 4.0 -20.1°
Enters shadow 21:27:17 33° 203° (SSW) 1,337 4.8 -19.7°
